Regional Weather Roundup
Issued by NWS Upton, NY

Current Version | Previous Version | Text Only | Print | Product List | Glossary Off
Versions: 1 2 3 4 5 6 7 8 9 10 11 12 13 14 15 16 17 18 19 20 21 22 23 24 25 26 27 28 29 30 31 32 33 34 35 36 37 38 39 40 41 42 43 44 45 46 47 48 49 50
000 ASUS41 KOKX 281608 RWROKX REGIONAL WEATHER ROUNDUP NATIONAL WEATHER SERVICE NEW YORK NY 1200 PM EDT TUE JUL 28 2015 NOTE: "FAIR" INDICATES FEW OR NO CLOUDS BELOW 12,000 FEET WITH NO SIGNIFICANT WEATHER AND/OR OBSTRUCTIONS TO VISIBILITY. NYZ071-072-176-178-NJZ106-104-281700- NEW YORK CITY METRO AREA CITY SKY/WX TMP DP RH WIND PRES REMARKS CENTRAL PARK MOSUNNY 87 64 46 CALM 30.01F LAGUARDIA APRT PTSUNNY 89 59 36 NW3 29.98S KENNEDY INTL PTSUNNY 85 70 60 S8 30.00S NEWARK/LIBERTY PTSUNNY 89 64 43 VRB3 29.98S HX 90 BRNX BOT. GARD N/A 88 63 42 NW3 29.99F TETERBORO MOSUNNY 89 60 37 VRB6 29.97F $$ NYZ177-179-078>081-281700- LONG ISLAND NEW YORK CITY SKY/WX TMP DP RH WIND PRES REMARKS FARMINGDALE MOSUNNY 86 71 60 S8 29.99S HX 91 ISLIP PTSUNNY 86 72 62 SW9 29.97S HX 92 SHIRLEY SUNNY 86 72 62 S13 29.99S HX 92 WESTHAMPTON PTSUNNY 84 72 67 S9 30.00S MONTAUK POINT N/A 83 72 69 VRB5 29.99F $$ NYZ052-065-067-281700- HUDSON VALLEY CITY SKY/WX TMP DP RH WIND PRES REMARKS WHITE PLAINS MOSUNNY 85 67 54 W5 30.00S NEWBURGH SUNNY 84 72 65 CALM 30.02S MONTGOMERY MOSUNNY 87 64 46 NE6 30.00S POUGHKEEPSIE SUNNY 87 66 49 W3 29.99S ALBANY MOSUNNY 86 66 51 SW3 29.98F $$ NJZ001-105-106-008-010-013-015-019>022-104-281700- NEW JERSEY CITY SKY/WX TMP DP RH WIND PRES REMARKS NEWARK/LIBERTY PTSUNNY 89 64 43 VRB3 29.98S HX 90 TETERBORO MOSUNNY 89 60 37 VRB6 29.97F CALDWELL MOSUNNY 88 64 44 E6 29.99F MORRISTOWN MOSUNNY 90 66 45 CALM 29.99F HX 92 SOMERVILLE SUNNY 89 62 40 CALM 29.97F SUSSEX MOSUNNY 86 62 44 CALM 30.01S ANDOVER N/A 85 67 54 VRB5 30.02F TRENTON MOSUNNY 87 68 52 VRB3 29.99F HX 90 MILLVILLE SUNNY 85 70 60 SW5 30.00F ATLANTIC CITY MOSUNNY 86 73 65 SW5 30.00F HX 93 WRIGHTSTOWN SUNNY 87 73 64 VRB2 29.97F HX 94 TOMS RIVER MOSUNNY 88 72 58 CALM 30.00S HX 94 BELMAR PTSUNNY 84 68 58 W3 30.00S $$ PAZ047>061-062-071-281700- EASTERN PENNSYLVANIA CITY SKY/WX TMP DP RH WIND PRES REMARKS PHILADELPHIA MOSUNNY 86 69 56 S5 30.00F HX 90 ALLENTOWN SUNNY 88 63 43 CALM 30.01F SCRANTON SUNNY 84 66 54 VRB3 30.05S $$ CTZ002-004>006-009-010-012-RIZ004-006-007-MAZ004-011-015-281700- SOUTHERN NEW ENGLAND IN CT CITY SKY/WX TMP DP RH WIND PRES REMARKS BRADLEY INTL PTSUNNY 88 67 49 VRB7 29.96F HX 91 HARTFORD SUNNY 88 66 48 VRB6 29.96F HX 90 DANBURY SUNNY 85 63 47 W6 30.01S WTRBRY/OXFORD MOSUNNY 82 66 57 NW5 30.04S BRIDGEPORT SUNNY 82 71 69 SW9 29.98F MERIDEN SUNNY 90 62 39 VRB5 29.97F HX 90 NEW HAVEN PTSUNNY 81 71 71 SW7 29.98F CHESTER FAIR 84 70 61 W6 29.99F GROTON SUNNY 79 71 76 SW12 29.96F WILLIMANTIC SUNNY 87 64 46 W9 29.97F IN RI CITY SKY/WX TMP DP RH WIND PRES REMARKS PROVIDENCE MOSUNNY 83 70 64 S5 29.96F BLOCK ISLAND MOSUNNY 81 73 78 W9 29.99S WESTERLY SUNNY 80 71 74 S7 29.98S IN MA CITY SKY/WX TMP DP RH WIND PRES REMARKS BOSTON MOSUNNY 83 70 64 S8 29.95F WORCESTER SUNNY 82 62 50 NW8 30.00F WESTFIELD SUNNY 85 69 58 CALM 29.97S PROVINCETOWN SUNNY 81 66 61 SW9 29.97S NANTUCKET SUNNY 78 71 79 SW12 29.98F $$ ANZ330-335-338-340-345-350-353-355-281700- COASTAL MARINE OBSERVATIONS STATION/POSITION TIME SKY/WX TEMP WIND PRES VSBY WAVE AIR SEA DIR/SP/G HT/PER (UTC) (F) (DEG/KT/KT) (MB) (MI) (FT/S) NY HARB ENTRANCE 1550 76 76 220/ 8/ 8 1015.4 2/11 4S FIRE IS NOT AVBL 20S FIRE ISLAND 1550 75 73 240/ 8/ 8 1015.6 2/ 8 GREAT SOUTH BAY 1500 77 80 250/ 10/ 12 N/A 23SW MTP 1550 74 75 240/ 8/ 8 1015.2 2/ 8 HUDSON CANYON NOT AVBL KINGS POINT 1500 85 69 CALM / 2 1014.8 CENTRAL LI SOUND NOT AVBL EASTERN LI SOUND 1500 74 69 240/ 6/ 8 N/A ROBBINS REEF 1500 79 160/ 6/ 7 1014.4 $$ >>>>>>>>>>>>>>>>>>>>>>>>>>>> KEY <<<<<<<<<<<<<<<<<<<<<<<<<<< > < > SKY/WX - SKY CONDITION/PRESENT WEATHER < > TMP - TEMPERATURE IN FAHRENHEIT < > DP - DEWPOINT IN FAHRENHEIT < > RH - RELATIVE HUMIDITY IN PERCENT < > WIND - DIRECTION AND SPEED IN MPH < > PRES - MEAN SEA LEVEL PRESSURE IN INCHES OF HG < > WCI - WIND CHILL INDEX < > VSB - VISIBILITY IN MILES < > HX - HEAT INDEX < > TC - TEMPERATURE IN CELSIUS < > VRB - VARIABLE WIND DIRECTION < > < >>>>>>>>>>>>>>>>>>>>>>>>>>>> KEY <<<<<<<<<<<<<<<<<<<<<<<<<<<

USA.gov is the U.S. government's official web portal to all federal, state and local government web resources and services.